Lid_Strength_Index
5 6 6 6 6 6 9 13 18 11 9 17 21 24 16 12 13 11 11 10 9 10 10 12 12 12 11 7 8 12 10 13 16 14 11 10 12 14 14 18 20 18 18 19
5 6 6 6 6 6 12 16 15 10 10 24 23 16 15 13 13 12 10 9 8 8 11 14 11 11 7 7 9 11 10 14 19 16 13 11 13 12 13 14 15 18 20 19
6 6 6 6 5 6 11 16 20 15 14 15 17 16 16 15 11 10 8 8 8 9 10 9 12 10 8 7 8 6 8 13 18 20 17 13 15 14 13 15 17 17 17 17
6 6 6 5 5 5 11 16 19 15 22 19 16 15 15 14 13 9 8 9 9 11 15 11 11 10 9 8 7 8 9 17 13 13 13 13 13 13 12 15 14 17 16 15
6 5 5 5 5 6 13 16 17 15 16 15 16 16 17 13 12 10 10 10 9 9 15 13 13 11 10 11 8 10 9 14 13 14 13 13 13 12 12 12 13 13 14 14
5 5 5 4 5 7 12 13 12 14 17 16 18 17 14 12 10 8 7 8 10 11 10 8 7 7 8 9 10 11 11 14 14 16 13 14 16 14 13 13 12 12 15 12
5 5 5 5 5 7 10 11 10 17 21 17 15 13 13 12 10 10 8 8 10 7 5 6 7 8 9 9 9 9 13 13 14 16 14 24 14 9 10 12 12 11 11 11
5 5 5 4 4 5 9 8 10 14 17 15 14 13 13 12 10 9 8 7 6 6 8 12 12 13 11 11 9 10 10 13 18 20 17 14 13 11 12 13 13 10 11 11
5 5 4 4 4 4 9 11 9 11 18 18 12 15 13 15 14 11 8 6 6 8 11 13 15 16 14 14 12 8 10 11 16 18 20 20 14 10 8 8 15 9 10 10
5 5 5 5 4 4 9 10 7 10 18 14 13 16 15 12 12 11 10 9 8 9 14 15 16 15 12 16 15 14 13 14 19 21 23 16 10 9 7 16 16 9 9 9
5 6 6 5 5 5 9 11 9 11 16 14 11 10 12 12 13 15 10 12 11 12 15 19 18 16 15 13 12 13 14 16 21 19 20 18 8 8 12 10 8 9 9 9
6 6 6 6 6 6 7 12 9 8 10 13 10 9 8 9 9 10 10 10 12 13 16 18 12 14 16 16 18 11 15 12 14 13 13 8 7 8 6 6 8 9 9 9
6 6 6 6 6 6 7 11 11 11 11 14 14 12 8 7 7 6 11 9 7 10 9 13 13 12 14 17 16 14 10 9 12 12 10 9 7 6 7 7 9 9 8 9
6 7 7 7 6 6 7 11 10 10 13 17 14 9 9 7 6 6 6 6 6 7 8 11 12 12 10 12 12 12 11 10 11 11 9 8 7 6 6 8 8 8 8 9
7 7 7 7 7 6 9 11 10 9 12 19 16 11 8 7 7 7 6 7 8 9 11 12 11 10 11 11 11 12 10 11 12 13 8 8 8 6 6 7 8 8 9 9
7 7 7 7 7 7 11 16 10 9 8 15 17 12 10 8 7 7 7 8 9 10 10 11 10 8 9 12 13 9 8 7 8 9 7 7 7 6 6 7 7 7 7 8
7 7 7 6 6 11 13 14 10 7 10 15 17 16 11 8 9 9 9 8 9 10 10 11 11 10 9 12 13 9 8 7 7 6 7 8 8 8 7 7 7 6 7 7
7 7 7 6 6 8 13 11 7 9 12 13 18 16 14 10 13 13 11 12 11 11 11 11 12 11 11 13 10 8 7 7 6 6 6 7 7 7 7 7 8 8 8 8
7 7 6 9 12 15 11 6 7 10 13 19 15 17 20 11 13 14 12 12 15 11 13 12 11 13 13 11 10 9 8 8 7 6 6 7 7 8 8 8 8 9 8 8
7 9 12 18 12 6 8 12 15 12 14 14 15 15 17 13 15 15 14 15 15 16 13 12 13 13 10 9 9 8 7 6 6 9 9 8 8 8 8 8 8 9 8 8
11 15 15 10 6 12 14 18 14 14 16 14 14 15 17 13 15 15 15 17 15 18 15 14 15 16 12 9 10 8 7 7 8 7 8 8 8 8 9 8 8 8 8 9
12 12 10 11 13 16 16 16 15 16 16 14 15 14 14 14 13 16 16 15 15 17 14 18 20 14 10 10 9 9 8 7 7 7 7 7 7 8 8 8 8 8 9 10
10 12 14 16 18 19 18 21 18 21 15 15 14 15 14 14 14 16 15 18 18 14 20 19 16 13 10 10 10 9 8 8 8 8 8 8 8 8 8 9 9 8 10 10
13 16 24 20 23 19 17 16 16 15 15 15 15 16 15 15 16 17 19 15 15 20 22 17 15 11 10 10 9 9 9 10 10 10 9 10 10 10 10 11 11 13 12 11
14 14 20 18 16 16 15 15 15 14 14 14 16 15 14 16 18 15 16 18 21 19 19 17 12 10 10 10 9 9 10 12 11 10 10 13 13 12 13 12 11 10 12 13
14 14 16 16 16 18 18 16 16 14 14 15 14 16 19 18 16 16 19 17 20 19 15 13 13 10 10 10 9 10 10 10 10 10 10 11 13 13 11 11 11 13 13 14
14 16 15 15 14 16 15 13 14 13 15 18 16 20 19 17 20 21 16 18 17 14 14 13 11 10 10 10 10 11 10 10 11 11 11 11 11 11 11 12 11 10 10 12